Location: Oshawa
(43.9000°N, 78.8670°W)
Time: 18:00:38
(UTC-04:00)

SPOT 5 - Visible Passes

Search period start: 25 July 2016 00:00
Search period end: 04 August 2016 00:00
Orbit: 624 x 815 km, 98.5° (Epoch: 25 July)

Date Brightness Start Highest point End Pass type
(mag) Time Alt. Az. Time Alt. Az. Time Alt. Az.
25 Jul 3.5 22:17:34 10° S 22:22:41 61° W 22:28:00 10° NNW visible
26 Jul 3.5 21:27:44 10° SE 21:32:49 50° ENE 21:37:59 10° N visible
26 Jul 5.0 23:06:58 10° SW 23:11:05 23° W 23:15:18 10° NW visible
27 Jul 3.5 22:15:47 11° S 22:20:50 64° WSW 22:26:11 10° NNW visible
28 Jul 3.5 21:25:55 10° SE 21:30:58 48° ENE 21:36:08 10° N visible
28 Jul 5.0 23:04:59 10° SSW 23:09:14 24° W 23:13:32 10° NW visible
29 Jul 3.4 22:14:01 12° S 22:19:00 66° WSW 22:24:21 10° NNW visible
30 Jul 3.6 21:24:06 10° SE 21:29:10 47° ENE 21:34:16 10° N visible
30 Jul 4.9 23:03:02 10° SSW 23:07:22 25° W 23:11:45 10° NW visible
31 Jul 3.4 22:12:16 12° S 22:17:09 69° WSW 22:22:31 10° NNW visible
01 Aug 3.6 21:22:17 10° SE 21:27:20 45° ENE 21:32:24 10° N visible
01 Aug 4.9 23:01:05 10° SSW 23:05:30 26° W 23:09:58 10° NW visible
02 Aug 3.3 22:10:33 13° S 22:15:19 72° WSW 22:20:41 10° NNW visible
03 Aug 3.6 21:20:29 10° SE 21:25:30 43° ENE 21:30:31 10° N visible
03 Aug 4.8 22:59:19 11° SSW 23:03:39 27° W 23:08:10 10° NW visible
